TimeEDT,TemperatureF,Dew PointF,Humidity,Sea Level PressureIn,VisibilityMPH,Wind Direction,Wind SpeedMPH,Gust SpeedMPH,PrecipitationIn,Events,Conditions,WindDirDegrees,DateUTC
12:53 AM,50.0,46.0,86,30.09,10.0,West,5.8,-,N/A,,Overcast,260,2013-10-08 04:53:00
1:53 AM,48.9,45.0,86,30.12,10.0,West,5.8,-,N/A,,Mostly Cloudy,260,2013-10-08 05:53:00
2:53 AM,46.0,43.0,89,30.14,10.0,West,8.1,-,N/A,,Clear,260,2013-10-08 06:53:00
3:53 AM,46.0,43.0,89,30.15,10.0,West,6.9,-,0.01,,Clear,270,2013-10-08 07:53:00
4:53 AM,45.0,42.1,90,30.17,10.0,West,3.5,-,N/A,,Clear,280,2013-10-08 08:53:00
5:53 AM,45.0,42.1,90,30.19,10.0,Calm,Calm,-,N/A,,Clear,0,2013-10-08 09:53:00
6:53 AM,44.1,42.1,93,30.23,10.0,Calm,Calm,-,N/A,,Clear,0,2013-10-08 10:53:00
7:00 AM,44.6,42.8,93,30.21,10.0,Calm,Calm,-,N/A,,Scattered Clouds,0,2013-10-08 11:00:00
7:53 AM,45.0,43.0,93,30.27,10.0,Calm,Calm,-,N/A,,Scattered Clouds,0,2013-10-08 11:53:00
8:53 AM,51.1,46.9,86,30.29,10.0,Calm,Calm,-,N/A,,Scattered Clouds,0,2013-10-08 12:53:00
9:53 AM,55.0,46.9,74,30.31,10.0,West,5.8,-,N/A,,Scattered Clouds,270,2013-10-08 13:53:00
10:53 AM,57.0,45.0,64,30.32,10.0,Calm,Calm,-,N/A,,Scattered Clouds,0,2013-10-08 14:53:00
11:53 AM,59.0,44.1,58,30.32,10.0,Calm,Calm,-,N/A,,Mostly Cloudy,0,2013-10-08 15:53:00
12:53 PM,59.0,43.0,55,30.32,10.0,WSW,5.8,-,N/A,,Scattered Clouds,250,2013-10-08 16:53:00
1:53 PM,62.1,44.1,52,30.31,10.0,Variable,4.6,-,N/A,,Scattered Clouds,0,2013-10-08 17:53:00
2:53 PM,61.0,43.0,52,30.31,10.0,Calm,Calm,-,N/A,,Scattered Clouds,0,2013-10-08 18:53:00
3:53 PM,62.1,46.0,56,30.31,10.0,South,8.1,-,N/A,,Scattered Clouds,180,2013-10-08 19:53:00
4:53 PM,62.1,45.0,53,30.31,10.0,SSE,8.1,-,N/A,,Partly Cloudy,160,2013-10-08 20:53:00
5:53 PM,61.0,44.1,54,30.31,10.0,Calm,Calm,-,N/A,,Partly Cloudy,0,2013-10-08 21:53:00
6:53 PM,55.0,45.0,69,30.32,10.0,NE,5.8,-,N/A,,Partly Cloudy,40,2013-10-08 22:53:00
7:53 PM,53.1,44.1,71,30.33,10.0,Calm,Calm,-,N/A,,Clear,0,2013-10-08 23:53:00
8:53 PM,50.0,44.1,80,30.35,10.0,ESE,4.6,-,N/A,,Clear,110,2013-10-09 00:53:00
9:53 PM,50.0,43.0,77,30.35,10.0,East,4.6,-,N/A,,Clear,100,2013-10-09 01:53:00
10:53 PM,48.0,42.1,80,30.35,10.0,Calm,Calm,-,N/A,,Clear,0,2013-10-09 02:53:00
11:53 PM,48.0,43.0,83,30.35,10.0,Calm,Calm,-,N/A,,Clear,0,2013-10-09 03:53:00